Overview Statistics Trail Chart Weather Telemetry Raw packets
 

This is the latest recevied weather packets stored in our database for station/object DL0BB-10. If no packets are shown the sender has not sent any weather packets the latest 10 day(s).

<< 20 21 22 23 24 25 26 >>
Time Temp. Humidity Pressure Rain* Wind** Luminosity Snow
1788227990 25° C 42% 1021.9 hPa - - - -
1788227090 25° C 42% 1022 hPa - - - -
1788226190 25° C 41% 1021.8 hPa - - - -
1788225290 25.56° C 40% 1021.9 hPa - - - -
1788224390 25° C 42% 1021.8 hPa - - - -
1788223489 25° C 41% 1021.6 hPa - - - -
1788222589 25.56° C 40% 1021.6 hPa - - - -
1788221689 26.11° C 40% 1021.6 hPa - - - -
1788220789 25° C 42% 1021.6 hPa - - - -
1788219889 25° C 41% 1021.6 hPa - - - -
1788218988 25.56° C 40% 1021.5 hPa - - - -
1788218088 25.56° C 40% 1021.5 hPa - - - -
1788217187 25° C 42% 1021.5 hPa - - - -
1788216287 25.56° C 41% 1021.4 hPa - - - -
1788215386 26.11° C 40% 1021.4 hPa - - - -
1788214486 25.56° C 41% 1021.3 hPa - - - -
1788213585 25.56° C 42% 1021.3 hPa - - - -
1788212684 25.56° C 41% 1021.4 hPa - - - -
1788211784 26.11° C 40% 1021.4 hPa - - - -
1788209984 25.56° C 42% 1020.9 hPa - - - -
1788209088 26.11° C 41% 1020.7 hPa - - - -
1788208188 26.67° C 40% 1020.5 hPa - - - -
1788207288 25.56° C 42% 1020.4 hPa - - - -
1788206388 25.56° C 42% 1020.2 hPa - - - -
1788205487 26.11° C 41% 1020.1 hPa - - - -

* Rain since midnight (hover to see other rain measurements)
** Current wind speed in m/s (hover to see current wind gust speed)